STARLINK-33996 (63944 NORAD) Tracking and Keplerian Element Data

This shows tracking and keplerian element data for the satellite.

Feedback or suggestion? Click here.




ElementValue
Catalog63944
NameSTARLINK-33996
Epoch Orbit3462
Epoch Day354.06507494
Epoch Year2025
RAAN115.2912
Inclination70.0015
Eccentricity0.0004413
Argument of Perigee268.5748
Mean Anonmoly91.4906
Mean Motion14.9833504
Decay Rate3.575E-05
L11 63944U 25098U 25354.06507494 .00003575 00000+0 30722-3 0 9990
L22 63944 70.0015 115.2912 0004413 268.5748 91.4906 14.98335040 34625



Live tracking and technical data element details for STARLINK-33996 (NORAD 63944). STARLINK-33996 can be tracked NOW for your location showing map with azimuth and elevation plus other details from your city location.







IsCatalogInMostPopularTable: catalog: 63944, numindb: 7
Update: records affected: 1



GetName: 63944 STARLINK-33996

Hit Count: updated at: Mon, 20 Apr 2026 09:06:14 GMT